TimeCST,TemperatureF,Dew PointF,Humidity,Sea Level PressureIn,VisibilityMPH,Wind Direction,Wind SpeedMPH,Gust SpeedMPH,PrecipitationIn,Events,Conditions,WindDirDegrees,DateUTC
12:15 AM,57.2,57.2,100,30.03,5.0,Calm,Calm,-,N/A,,Clear,0,2013-02-06 06:15:00
12:35 AM,57.4,57.4,100,30.03,4.0,Calm,Calm,-,N/A,,Clear,0,2013-02-06 06:35:00
1:15 AM,57.2,57.2,100,30.03,5.0,NE,5.8,-,N/A,,Scattered Clouds,50,2013-02-06 07:15:00
1:35 AM,56.8,56.8,100,30.04,5.0,ENE,5.8,-,N/A,,Clear,60,2013-02-06 07:35:00
1:55 AM,56.5,56.5,100,30.03,5.0,ENE,5.8,-,N/A,,Clear,60,2013-02-06 07:55:00
2:15 AM,55.8,55.8,100,30.03,4.0,ENE,3.5,-,N/A,,Clear,60,2013-02-06 08:15:00
2:35 AM,55.4,55.4,100,30.03,4.0,East,3.5,-,N/A,,Clear,80,2013-02-06 08:35:00
2:55 AM,55.9,55.9,100,30.03,4.0,Calm,Calm,-,N/A,,Clear,0,2013-02-06 08:55:00
3:15 AM,54.7,54.7,100,30.04,3.0,Calm,Calm,-,N/A,,Clear,0,2013-02-06 09:15:00
3:35 AM,54.9,54.9,100,30.04,2.5,NE,4.6,-,N/A,,Clear,40,2013-02-06 09:35:00
3:55 AM,54.7,54.7,100,30.03,1.2,ENE,5.8,-,N/A,,Overcast,70,2013-02-06 09:55:00
4:15 AM,54.9,54.9,100,30.03,3.0,ENE,3.5,-,N/A,,Mostly Cloudy,70,2013-02-06 10:15:00
4:35 AM,54.7,54.7,100,30.03,5.0,Calm,Calm,-,N/A,,Scattered Clouds,0,2013-02-06 10:35:00
4:55 AM,55.4,55.4,100,30.04,5.0,ENE,4.6,-,N/A,,Scattered Clouds,60,2013-02-06 10:55:00
5:15 AM,55.0,55.0,100,30.05,5.0,NE,3.5,-,N/A,,Clear,40,2013-02-06 11:15:00
5:35 AM,54.9,54.9,100,30.06,4.0,NE,3.5,-,N/A,,Mostly Cloudy,50,2013-02-06 11:35:00
5:55 AM,54.5,54.5,100,30.06,4.0,Calm,Calm,-,N/A,,Overcast,0,2013-02-06 11:55:00
6:15 AM,54.5,54.5,100,30.06,4.0,ENE,3.5,-,N/A,,Overcast,60,2013-02-06 12:15:00
6:35 AM,54.9,54.9,100,30.07,3.0,Calm,Calm,-,N/A,,Overcast,0,2013-02-06 12:35:00
6:55 AM,55.0,55.0,100,30.07,0.5,ENE,4.6,-,N/A,Fog,Fog,60,2013-02-06 12:55:00
7:15 AM,54.7,54.7,100,30.08,0.5,NE,3.5,-,N/A,Fog,Fog,50,2013-02-06 13:15:00
7:35 AM,54.7,54.7,100,30.07,0.5,ENE,5.8,-,N/A,Fog,Fog,70,2013-02-06 13:35:00
7:55 AM,55.4,55.4,100,30.06,2.0,ENE,5.8,-,N/A,,Overcast,70,2013-02-06 13:55:00
8:15 AM,56.1,56.1,100,30.07,4.0,ENE,5.8,-,N/A,,Overcast,70,2013-02-06 14:15:00
8:35 AM,57.4,57.4,100,30.07,4.0,ENE,6.9,-,N/A,,Overcast,70,2013-02-06 14:35:00
8:55 AM,58.3,58.1,99,30.07,4.0,East,6.9,-,N/A,,Overcast,90,2013-02-06 14:55:00
9:15 AM,58.6,58.3,99,30.07,4.0,East,5.8,-,N/A,,Overcast,80,2013-02-06 15:15:00
9:35 AM,59.0,58.3,97,30.09,4.0,ENE,3.5,-,N/A,,Overcast,70,2013-02-06 15:35:00
9:55 AM,59.9,59.2,97,30.09,5.0,East,3.5,-,N/A,,Overcast,90,2013-02-06 15:55:00
10:15 AM,60.1,59.0,96,30.10,5.0,Calm,Calm,-,N/A,,Overcast,0,2013-02-06 16:15:00
10:35 AM,60.8,59.7,96,30.10,5.0,Calm,Calm,-,N/A,Rain,Light Rain,0,2013-02-06 16:35:00
10:55 AM,62.6,60.4,93,30.10,7.0,Calm,Calm,-,N/A,,Mostly Cloudy,0,2013-02-06 16:55:00
11:15 AM,62.6,60.4,93,30.07,10.0,East,8.1,-,N/A,,Mostly Cloudy,80,2013-02-06 17:15:00
11:35 AM,63.3,61.2,93,30.07,10.0,East,6.9,-,N/A,,Overcast,100,2013-02-06 17:35:00
11:55 AM,63.9,61.7,93,30.05,10.0,East,9.2,-,N/A,,Overcast,90,2013-02-06 17:55:00
12:15 PM,64.6,61.7,90,30.03,10.0,East,9.2,-,N/A,,Mostly Cloudy,90,2013-02-06 18:15:00
12:35 PM,64.0,61.5,91,30.02,10.0,East,10.4,-,N/A,Rain,Light Rain,90,2013-02-06 18:35:00
12:55 PM,64.6,62.2,92,30.01,10.0,East,8.1,-,N/A,,Mostly Cloudy,100,2013-02-06 18:55:00
1:15 PM,65.1,61.0,86,30.00,10.0,East,9.2,-,N/A,,Mostly Cloudy,100,2013-02-06 19:15:00
1:35 PM,65.7,60.8,84,29.99,10.0,ESE,9.2,-,N/A,,Mostly Cloudy,110,2013-02-06 19:35:00
1:55 PM,66.2,60.4,82,29.98,10.0,East,10.4,-,N/A,,Mostly Cloudy,100,2013-02-06 19:55:00
2:15 PM,66.6,60.6,81,29.97,10.0,East,9.2,-,N/A,,Scattered Clouds,100,2013-02-06 20:15:00
2:35 PM,66.2,60.3,81,29.98,10.0,ESE,8.1,-,N/A,,Mostly Cloudy,110,2013-02-06 20:35:00
2:55 PM,65.3,60.8,85,29.99,10.0,East,6.9,-,N/A,,Drizzle,100,2013-02-06 20:55:00
3:15 PM,65.1,61.2,87,30.00,10.0,East,3.5,-,N/A,Rain,Rain,90,2013-02-06 21:15:00
3:35 PM,64.6,61.3,89,30.00,10.0,East,6.9,-,0.01,,Drizzle,100,2013-02-06 21:35:00
3:55 PM,63.7,61.2,91,29.99,7.0,East,5.8,-,0.03,Rain,Rain,90,2013-02-06 21:55:00
4:15 PM,62.8,61.7,96,29.99,5.0,ENE,4.6,-,0.02,Rain,Light Rain,60,2013-02-06 22:15:00
4:35 PM,62.6,61.3,96,29.99,5.0,ENE,4.6,-,0.04,Rain,Light Rain,70,2013-02-06 22:35:00
4:55 PM,62.1,61.2,97,29.99,4.0,East,5.8,-,0.06,Rain,Light Rain,80,2013-02-06 22:55:00
5:15 PM,61.9,61.3,98,30.01,3.0,East,4.6,-,0.03,Rain,Light Rain,80,2013-02-06 23:15:00
5:35 PM,61.7,61.2,98,29.99,2.5,NE,5.8,-,0.06,Rain,Rain,50,2013-02-06 23:35:00
5:55 PM,61.3,61.0,99,29.99,4.0,ENE,8.1,-,0.10,Rain,Light Rain,60,2013-02-06 23:55:00
6:15 PM,61.0,60.8,99,30.00,5.0,East,6.9,-,0.01,Rain,Light Rain,80,2013-02-07 00:15:00
6:35 PM,61.0,60.8,99,29.98,4.0,NE,10.4,-,0.05,Rain,Light Rain,50,2013-02-07 00:35:00
6:55 PM,60.6,59.9,97,29.99,4.0,East,9.2,-,0.07,Rain,Light Rain,80,2013-02-07 00:55:00
7:15 PM,60.6,60.1,98,29.96,2.5,ENE,15.0,-,0.03,Rain,Light Rain,70,2013-02-07 01:15:00
7:35 PM,60.4,59.9,98,29.96,3.0,ENE,13.8,19.6,0.06,Rain,Light Rain,70,2013-02-07 01:35:00
7:55 PM,60.3,59.5,97,29.96,4.0,East,16.1,20.7,0.10,Rain,Light Rain,80,2013-02-07 01:55:00
8:15 PM,59.9,59.2,97,29.98,4.0,East,13.8,18.4,0.04,Rain,Light Rain,100,2013-02-07 02:15:00
8:35 PM,59.9,59.2,97,29.97,4.0,East,16.1,23.0,0.09,Rain,Rain,90,2013-02-07 02:35:00
8:55 PM,59.9,59.0,97,29.97,5.0,East,17.3,20.7,0.13,Rain,Light Rain,80,2013-02-07 02:55:00
9:15 PM,59.5,59.0,98,29.97,5.0,East,17.3,21.9,0.02,Rain,Light Rain,100,2013-02-07 03:15:00
9:35 PM,59.4,58.3,96,29.96,7.0,East,15.0,21.9,0.03,Rain,Light Rain,90,2013-02-07 03:35:00
9:55 PM,59.4,58.1,96,29.96,7.0,East,13.8,20.7,0.04,Rain,Light Rain,90,2013-02-07 03:55:00
10:15 PM,59.4,57.7,94,29.95,7.0,East,11.5,16.1,0.01,Rain,Rain,90,2013-02-07 04:15:00
10:35 PM,59.4,58.1,96,29.96,7.0,East,9.2,-,0.03,Rain,Rain,90,2013-02-07 04:35:00
10:55 PM,59.2,58.1,96,29.96,7.0,ESE,10.4,16.1,0.07,Rain,Rain,110,2013-02-07 04:55:00
11:15 PM,59.2,58.3,97,29.94,7.0,East,11.5,16.1,0.05,Rain,Light Rain,100,2013-02-07 05:15:00
11:35 PM,59.4,58.5,97,29.91,7.0,ESE,16.1,21.9,0.13,Rain,Rain,110,2013-02-07 05:35:00
11:55 PM,59.4,58.3,96,29.90,10.0,ESE,17.3,25.3,0.16,Rain,Light Rain,120,2013-02-07 05:55:00